KOMPSAT 2

导读 | 星芒AI

KOMPSAT 2 是韩国于2006年发射的第二颗多用途地球观测卫星,由韩国航空宇宙研究院(KARI)研制。该卫星搭载高分辨率光学传感器,具备1米全色和4米多光谱成像能力,主要用于国土监测、灾害评估、环境监测和军事侦察等领域。KOMPSAT 2 的成功发射标志着韩国在遥感卫星技术上的重要进展,为后续更先进的 KOMPSAT 系列卫星奠定了基础。

基本信息
目录编号:
29268
目录名称:
KOMPSAT 2
国际标识:
2006-031A
轨道中心:
EARTH
卫星名称:
KOMPSAT 2
卫星全名:
--
卫星状态:
在轨 (已飞行7033 天)
发射日期:
2006-07-28 UTC
国别 :
韩国 (KR)
星等 :
--
轨道信息
数据来源 国际轨道数据 AOE轨道数据
星历时间 2025-10-28T22:56:52+0800
1天前
查看轨道信息
2025-10-28T18:00:00+0800
1天前
查看轨道信息
半长轴 7057.031km 7057.035km
偏心率 0.0015847 0.0015954
轨道倾角 97.830° 97.831°
近地点辐角 88.406° 89.468°
升交点赤经 132.290° 132.093°
平近点角 3.987° 356.701°
近地点 667.712km 667.641km
远地点 690.08km 690.159km
周期 98.332分钟 98.332分钟
每日圈数 14.644338 14.644326
详细信息
使用方式:
暂无
2D轨道图
3D轨道图
轨道高度分析图
轨道倾角分析图
轨道综合分析图
查看轨道综合分析图